STARLINK-1010, 44716

Orbit data source: Space-Track

STARLINK-1010, 44716 is a payload satellite owned by SpaceX/Seattle (US) in LEO that was launched on Mon, 11 Nov 2019 UTC via an FALCON 9 launch vehicle from the Air Force Eastern Test Range (AFETR). Payload-class satellites include a variety of spacecraft equipped with specific instruments for various scientific and technological missions. These include communications satellites like Starlink; space stations such as the ISS; scientific satellites like the Hubble; Earth observation satellites from companies like Planet Labs, Umbra, and HawkEye 360; GPS; miniature CubeSats for education and research; and military/defense satellites.

Loading next visibility...
Identifier
44716, 2019-074D
Orbit
LEO
Country
Flag of USUS
Related business
Manufacturer
SpaceX/Seattle
Mission
Partially operational Commercial Communications
Bus & Motor
STARLINK, Unknown motor
Mass
260 kg wet, ~248 kg dry
Launch date (UTC)
2019-11-11 (6 years ago)
Launch vehicle
FALCON 9
Launch site
Air Force Eastern Test Range (AFETR)
Object type
Payload
Rocket body
Debris
Shape & HBR
Box + 1 Pan, 10.1 m
Radar Cross Section
13.562 m², Large (>1 m²)

Expand to show TLE details & history
Last TLE update: 11 hours ago

TLE from 11 hours ago
0 STARLINK-1010
1 44716U 19074D   25286.66667824  .00315260  00000-0  11115-2 0  9999
2 44716  53.0465  63.1691 0002614  83.7318 210.5062 15.87760025  6010
Epoch: 2025-10-13T16:00Z
TLE epoch observation values (Epoch: 2025-10-13T16:00:00.999Z)
Latitude
-46.97116°
Longitude
107.43772°
Altitude
326.07 km
Speed
7.711 km/s
True Right ascension
00h 39m 37s
True Declination
-46° 47' 19"
Sunlit
Object was in full shadow at epoch
Visualization orbit readout
Latitude
Unknown
Longitude
Unknown
Altitude
Unknown
Speed
Unknown
Apparent Right ascension
Unknown
Apparent Declination
Unknown
Sunlit
N/A
Visualization observer readout
Local Sidereal Time
21:24:31
Azimuth
Unknown
Elevation
Unknown
Doppler factor
Unknown
Orbital elements
Apogee altitude
310.594 km
Perigee altitude
307.098 km
Semi-major axis
6,686.983 km
Eccentricity
0.00026
Inclination
53.0465°
RAAN
63.1691°
Arg. of periapsis
83.7318°
True anomaly
210.491°
Mean anomaly
210.5062°
Eccentric anomaly
210.4986°
Mean motion
3.96915 °/min
Orbital period
90.7 mins
BSTAR
0.0011115
Loading maneuver chart data...
Computing Atmospheric mass density...
Loading historical data...
Loading historical data...
Loading historical data...
Loading historical data...
Loading historical data...
Loading historical data...
Loading historical data...

Documentation

Showing up to 5 results
|